• In United Kingdom
  • List of Countries
  • For 7 days
  • Water Temperature
  • Satellite Maps
  • Weather Map
  • Weather Widgets
  • user-avatar
    Login

    Hourly Weather Ali Bayramli

    Today, 19 September, Tuesday

    Time Temperature Precipitation Wind Pressure Humidity
    00:00 +26°C° 0 mm 2 mps 759 mmHg 58%
    01:00 +25°C° 0 mm 2 mps 759 mmHg 59%
    02:00 +25°C° 0 mm 2 mps 759 mmHg 60%
    03:00 +24°C° 0 mm 2 mps 759 mmHg 63%
    04:00 +24°C° 0 mm 2 mps 759 mmHg 63%
    05:00 +24°C° 0 mm 2 mps 759 mmHg 63%
    06:00 +24°C° 0 mm 2 mps 759 mmHg 63%
    07:00 +26°C° 0 mm 2 mps 759 mmHg 55%
    08:00 +28°C° 0 mm 3 mps 759 mmHg 48%
    09:00 +30°C° 0 mm 3 mps 760 mmHg 40%
    10:00 +31°C° 0 mm 3 mps 760 mmHg 35%
    11:00 +34°C° 0 mm 4 mps 759 mmHg 31%
    12:00 +35°C° 0 mm 4 mps 759 mmHg 26%
    13:00 +35°C° 0 mm 5 mps 759 mmHg 27%
    14:00 +35°C° 0 mm 5 mps 759 mmHg 27%
    15:00 +36°C° 0 mm 6 mps 758 mmHg 26%
    16:00 +34°C° 0 mm 6 mps 759 mmHg 34%
    17:00 +32°C° 0 mm 6 mps 759 mmHg 41%
    18:00 +30°C° 0 mm 5 mps 759 mmHg 48%
    19:00 +29°C° 0 mm 5 mps 759 mmHg 54%
    20:00 +28°C° 0 mm 4 mps 759 mmHg 60%
    21:00 +28°C° 0 mm 4 mps 759 mmHg 66%
    22:00 +27°C° 0 mm 3 mps 759 mmHg 68%
    23:00 +27°C° 0 mm 3 mps 759 mmHg 69%

    Tomorrow, 20 September, Wednesday

    Time Temperature Precipitation Wind Pressure Humidity
    00:00 +26°C° 0 mm 2 mps 759 mmHg 71%
    01:00 +26°C° 0 mm 2 mps 759 mmHg 71%
    02:00 +26°C° 0 mm 2 mps 759 mmHg 71%
    03:00 +25°C° 0 mm 2 mps 759 mmHg 72%
    04:00 +25°C° 0 mm 2 mps 759 mmHg 71%
    05:00 +25°C° 0 mm 2 mps 759 mmHg 71%
    06:00 +25°C° 0 mm 2 mps 759 mmHg 71%
    07:00 +27°C° 0 mm 2 mps 759 mmHg 64%
    08:00 +28°C° 0 mm 2 mps 760 mmHg 58%
    09:00 +30°C° 0 mm 2 mps 760 mmHg 51%
    10:00 +31°C° 0 mm 3 mps 759 mmHg 44%
    11:00 +33°C° 0 mm 3 mps 759 mmHg 37%
    12:00 +35°C° 0 mm 3 mps 759 mmHg 31%
    13:00 +35°C° 0 mm 4 mps 759 mmHg 29%
    14:00 +35°C° 0 mm 4 mps 758 mmHg 27%
    15:00 +36°C° 0 mm 5 mps 758 mmHg 25%
    16:00 +34°C° 0 mm 5 mps 758 mmHg 29%
    17:00 +33°C° 0 mm 5 mps 758 mmHg 32%
    18:00 +30°C° 0 mm 5 mps 758 mmHg 36%
    19:00 +29°C° 0 mm 4 mps 758 mmHg 42%
    20:00 +28°C° 0 mm 3 mps 758 mmHg 48%
    21:00 +27°C° 0 mm 2 mps 759 mmHg 55%
    22:00 +27°C° 0 mm 2 mps 759 mmHg 57%
    23:00 +26°C° 0 mm 2 mps 758 mmHg 60%

    Day after tomorrow, 21 September, Thursday

    Time Temperature Precipitation Wind Pressure Humidity
    00:00 +26°C° 0 mm 1 mps 758 mmHg 63%
    01:00 +25°C° 0 mm 1 mps 758 mmHg 62%
    02:00 +25°C° 0 mm 1 mps 758 mmHg 62%
    03:00 +25°C° 0 mm 1 mps 758 mmHg 61%
    04:00 +25°C° 0 mm 1 mps 758 mmHg 61%
    05:00 +25°C° 0 mm 1 mps 758 mmHg 62%
    06:00 +24°C° 0 mm 1 mps 758 mmHg 62%
    07:00 +26°C° 0 mm 1 mps 759 mmHg 55%
    08:00 +28°C° 0 mm 1 mps 759 mmHg 48%
    09:00 +30°C° 0 mm 1 mps 759 mmHg 40%
    10:00 +31°C° 0 mm 1 mps 759 mmHg 35%
    11:00 +34°C° 0 mm 2 mps 758 mmHg 29%
    12:00 +35°C° 0 mm 2 mps 758 mmHg 24%
    13:00 +35°C° 0 mm 3 mps 758 mmHg 23%
    14:00 +36°C° 0 mm 4 mps 757 mmHg 21%
    15:00 +36°C° 0 mm 5 mps 757 mmHg 20%
    16:00 +34°C° 0 mm 5 mps 757 mmHg 23%
    17:00 +33°C° 0 mm 5 mps 757 mmHg 27%
    18:00 +30°C° 0 mm 5 mps 757 mmHg 30%
    19:00 +29°C° 0 mm 4 mps 757 mmHg 37%
    20:00 +28°C° 0 mm 3 mps 758 mmHg 44%
    21:00 +27°C° 0 mm 3 mps 758 mmHg 50%
    22:00 +27°C° 0 mm 2 mps 758 mmHg 53%
    23:00 +26°C° 0 mm 2 mps 758 mmHg 56%

    22 September, Friday

    Time Temperature Precipitation Wind Pressure Humidity
    00:00 +26°C° 0 mm 2 mps 758 mmHg 59%
    01:00 +26°C° 0 mm 2 mps 758 mmHg 59%
    02:00 +25°C° 0 mm 2 mps 758 mmHg 60%
    03:00 +25°C° 0 mm 2 mps 757 mmHg 60%
    04:00 +25°C° 0 mm 1 mps 757 mmHg 60%
    05:00 +25°C° 0 mm 1 mps 758 mmHg 59%
    06:00 +24°C° 0 mm 1 mps 758 mmHg 59%
    07:00 +26°C° 0 mm 1 mps 758 mmHg 52%
    08:00 +28°C° 0 mm 1 mps 758 mmHg 44%
    09:00 +28°C° 0 mm 0 mps 758 mmHg 37%
    10:00 +31°C° 0 mm 1 mps 757 mmHg 32%
    11:00 +34°C° 0 mm 2 mps 757 mmHg 27%
    12:00 +35°C° 0 mm 3 mps 757 mmHg 22%
    13:00 +35°C° 0 mm 4 mps 756 mmHg 21%
    14:00 +35°C° 0 mm 5 mps 756 mmHg 21%
    15:00 +36°C° 0 mm 6 mps 756 mmHg 20%
    16:00 +34°C° 0 mm 5 mps 756 mmHg 26%
    17:00 +32°C° 0 mm 5 mps 756 mmHg 31%
    18:00 +30°C° 0 mm 5 mps 756 mmHg 37%
    19:00 +29°C° 0 mm 4 mps 757 mmHg 44%
    20:00 +28°C° 0 mm 4 mps 757 mmHg 51%
    21:00 +27°C° 0 mm 3 mps 757 mmHg 57%
    22:00 +27°C° 0 mm 3 mps 757 mmHg 58%
    23:00 +27°C° 0 mm 2 mps 757 mmHg 59%

    23 September, Saturday

    Time Temperature Precipitation Wind Pressure Humidity
    00:00 +26°C° 0 mm 2 mps 758 mmHg 59%
    01:00 +26°C° 0 mm 2 mps 758 mmHg 57%
    02:00 +26°C° 0 mm 2 mps 758 mmHg 55%
    03:00 +25°C° 0 mm 2 mps 758 mmHg 52%
    04:00 +25°C° 0 mm 2 mps 758 mmHg 51%
    05:00 +25°C° 0 mm 2 mps 759 mmHg 50%
    06:00 +24°C° 0 mm 1 mps 759 mmHg 49%
    07:00 +26°C° 0 mm 1 mps 759 mmHg 43%
    08:00 +28°C° 0 mm 1 mps 760 mmHg 36%
    09:00 +30°C° 0 mm 1 mps 760 mmHg 29%
    10:00 +32°C° 0 mm 2 mps 760 mmHg 26%
    11:00 +34°C° 0 mm 3 mps 760 mmHg 23%
    12:00 +35°C° 0 mm 3 mps 760 mmHg 19%
    13:00 +35°C° 0 mm 4 mps 760 mmHg 20%
    14:00 +35°C° 0 mm 5 mps 760 mmHg 20%
    15:00 +35°C° 0 mm 6 mps 759 mmHg 20%
    16:00 +34°C° 0 mm 6 mps 760 mmHg 25%
    17:00 +32°C° 0 mm 5 mps 760 mmHg 30%
    18:00 +30°C° 0 mm 5 mps 760 mmHg 34%
    19:00 +29°C° 0 mm 4 mps 761 mmHg 38%
    20:00 +28°C° 0 mm 4 mps 761 mmHg 41%
    21:00 +27°C° 0 mm 3 mps 761 mmHg 44%
    22:00 +27°C° 0 mm 3 mps 761 mmHg 44%
    23:00 +26°C° 0 mm 2 mps 761 mmHg 44%

    24 September, Sunday

    Time Temperature Precipitation Wind Pressure Humidity
    00:00 +26°C° 0 mm 2 mps 761 mmHg 43%
    01:00 +25°C° 0 mm 2 mps 761 mmHg 43%
    02:00 +25°C° 0 mm 2 mps 761 mmHg 43%
    03:00 +25°C° 0 mm 2 mps 761 mmHg 42%
    04:00 +24°C° 0 mm 2 mps 761 mmHg 41%
    05:00 +24°C° 0 mm 2 mps 761 mmHg 40%
    06:00 +24°C° 0 mm 2 mps 761 mmHg 39%
    07:00 +26°C° 0 mm 3 mps 762 mmHg 36%
    08:00 +28°C° 0 mm 3 mps 762 mmHg 32%
    09:00 +30°C° 0 mm 3 mps 762 mmHg 28%
    10:00 +31°C° 0 mm 3 mps 762 mmHg 27%
    11:00 +33°C° 0 mm 4 mps 762 mmHg 25%
    12:00 +34°C° 0 mm 4 mps 761 mmHg 24%
    13:00 +35°C° 0 mm 5 mps 761 mmHg 25%
    14:00 +35°C° 0 mm 6 mps 761 mmHg 26%
    15:00 +35°C° 0 mm 6 mps 761 mmHg 28%
    16:00 +33°C° 0 mm 6 mps 761 mmHg 32%
    17:00 +32°C° 0 mm 6 mps 761 mmHg 37%
    18:00 +29°C° 0 mm 5 mps 762 mmHg 42%
    19:00 +28°C° 0 mm 5 mps 762 mmHg 43%
    20:00 +28°C° 0 mm 4 mps 762 mmHg 44%
    21:00 +27°C° 0 mm 4 mps 762 mmHg 46%
    22:00 +27°C° 0 mm 4 mps 762 mmHg 47%
    23:00 +26°C° 0 mm 4 mps 762 mmHg 48%
    Show more